ZL1TQN Weather Reports


time (UTC)temp
F
wind
direction
speed
knots
gust
knots
rain 1hr
in
rain 24hr
in
rain mn
in
humidity
%
barometer
mb
20260509034005 66 301 1.7 5.2 0.00 0.51 0.40 71 1003.5
20260509033505 67 297 2.6 7.8 0.00 0.51 0.40 70 1003.4
20260509033006 67 282 2.6 10.4 0.00 0.51 0.40 70 1003.4
20260509032506 67 273 4.3 10.4 0.00 0.51 0.40 68 1003.3
20260509032005 67 288 4.3 10.4 0.00 0.51 0.40 69 1003.4
20260509031506 67 316 3.5 11.3 0.00 0.51 0.40 68 1003.3
20260509031006 67 290 4.3 11.3 0.00 0.51 0.40 68 1003.3
20260509030006 67 287 1.7 11.3 0.00 0.51 0.40 69 1003.3
20260509025505 67 292 3.5 11.3 0.00 0.51 0.40 69 1003.2
20260509025006 67 262 4.3 14.8 0.00 0.51 0.40 70 1003.2
20260509024506 67 294 4.3 14.8 0.00 0.51 0.40 70 1003.3
20260509024005 67 287 6.1 11.3 0.00 0.51 0.40 68 1003.3
20260509023505 67 252 5.2 11.3 0.00 0.51 0.40 68 1003.5
20260509023005 67 280 5.2 10.4 0.00 0.51 0.40 67 1003.5
20260509022506 67 274 3.5 10.4 0.00 0.51 0.40 70 1003.6
20260509021505 67 315 4.3 12.2 0.00 0.51 0.40 72 1003.6
20260509021006 67 288 3.5 12.2 0.00 0.51 0.40 71 1003.7
20260509020005 66 269 4.3 10.4 0.00 0.51 0.40 73 1003.8
20260509015506 66 275 2.6 12.2 0.00 0.51 0.40 74 1003.8
20260509014506 65 276 6.1 12.2 0.00 0.51 0.40 72 1003.9
20260509014006 65 270 5.2 11.3 0.00 0.51 0.40 74 1003.8
20260509013505 66 291 4.3 10.4 0.00 0.51 0.40 74 1003.9
20260509012505 66 269 5.2 11.3 0.00 0.51 0.40 73 1004.0
20260509012005 65 323 5.2 13.0 0.00 0.51 0.40 74 1004.0
20260509011505 66 299 5.2 13.0 0.00 0.51 0.40 73 1004.0
20260509011006 66 287 4.3 11.3 0.00 0.51 0.40 75 1004.0
20260509010005 66 281 4.3 10.4 0.00 0.51 0.40 73 1004.1
20260509005505 66 304 3.5 10.4 0.00 0.51 0.40 74 1004.2
20260509005006 66 320 4.3 14.8 0.00 0.51 0.40 75 1004.4
20260509004506 65 270 5.2 14.8 0.00 0.51 0.40 74 1004.5
20260509004006 65 285 6.1 10.4 0.00 0.51 0.40 73 1004.5
20260509003506 65 281 4.3 10.4 0.00 0.51 0.40 73 1004.5
20260509003006 65 294 3.5 10.4 0.00 0.51 0.40 72 1004.6
20260509002505 65 295 2.6 11.3 0.00 0.51 0.40 75 1004.6
20260509002005 66 293 4.3 11.3 0.00 0.51 0.40 72 1004.9
20260509001506 66 290 5.2 11.3 0.00 0.51 0.40 72 1005.0
20260509001006 66 279 4.3 11.3 0.00 0.51 0.40 74 1005.0
20260509000005 66 294 4.3 12.2 0.00 0.51 0.40 77 1005.2
20260508235505 66 309 6.1 12.2 0.00 0.51 0.40 78 1005.3
20260508235005 66 276 5.2 10.4 0.00 0.51 0.40 78 1005.4
20260508234005 65 316 4.3 10.4 0.00 0.51 0.40 80 1005.5
20260508233506 65 296 2.6 10.4 0.00 0.51 0.40 82 1005.6
20260508232006 65 338 2.6 8.7 0.00 0.51 0.40 83 1005.9
20260508231505 65 292 2.6 8.7 0.00 0.51 0.40 81 1005.9
20260508231006 66 330 1.7 10.4 0.00 0.51 0.40 83 1005.9
20260508230005 65 297 2.6 10.4 0.00 0.51 0.40 84 1006.0
20260508225505 64 295 3.5 7.8 0.00 0.51 0.40 83 1006.1
20260508225005 64 307 3.5 7.8 0.00 0.51 0.40 84 1006.1
20260508224505 64 293 3.5 6.1 0.00 0.51 0.40 85 1006.1
20260508224005 63 328 1.7 6.1 0.00 0.51 0.40 86 1006.2
20260508223506 63 280 1.7 4.3 0.00 0.51 0.40 88 1006.2
20260508223005 63 313 1.7 4.3 0.00 0.51 0.40 86 1006.2
20260508222505 63 306 1.7 5.2 0.00 0.54 0.40 88 1006.4
20260508222005 63 300 2.6 5.2 0.00 0.54 0.40 87 1006.4
20260508221506 62 310 1.7 5.2 0.00 0.54 0.40 88 1006.5
20260508221005 62 303 1.7 5.2 0.00 0.54 0.40 89 1006.6
20260508220005 63 347 0.9 2.6 0.00 0.54 0.40 90 1006.6
20260508215505 62 28 1.7 2.6 0.00 0.54 0.40 90 1006.6
20260508215005 62 3 0.9 2.6 0.00 0.54 0.40 90 1006.6
20260508214505 63 356 0.9 2.6 0.00 0.54 0.40 90 1006.6
20260508214005 62 20 0.0 2.6 0.00 0.54 0.40 92 1006.6
20260508213505 62 0 1.7 2.6 0.00 0.54 0.40 90 1006.6
20260508213005 62 8 0.9 1.7 0.00 0.54 0.40 93 1006.6
20260508212505 62 347 0.9 1.7 0.00 0.54 0.40 94 1006.6
20260508212006 61 109 0.0 1.7 0.00 0.54 0.40 95 1006.6
20260508211505 61 140 0.0 1.7 0.00 0.54 0.40 95 1006.6
20260508211005 61 165 0.9 1.7 0.00 0.54 0.40 95 1006.7
20260508210005 60 96 0.9 2.6 0.00 0.54 0.40 95 1006.7
20260508205505 60 357 0.9 2.6 0.00 0.54 0.40 96 1006.8
20260508205005 60 26 1.7 2.6 0.00 0.54 0.40 96 1006.7
20260508204505 60 3 0.0 2.6 0.00 0.54 0.40 96 1006.7
20260508204005 59 10 1.7 2.6 0.00 0.54 0.40 96 1006.7
20260508203505 59 36 0.0 0.9 0.00 0.54 0.40 96 1006.7
20260508203005 58 159 0.0 0.9 0.00 0.54 0.40 97 1006.7
20260508202505 58 158 0.0 0.9 0.00 0.54 0.40 97 1006.7
20260508202005 57 159 0.0 1.7 0.00 0.54 0.40 96 1006.7
20260508200005 56 165 0.9 1.7 0.01 0.54 0.40 96 1006.6
20260508195505 56 170 0.9 1.7 0.01 0.54 0.40 96 1006.6
20260508195005 55 187 0.9 1.7 0.01 0.54 0.40 96 1006.6
20260508193505 55 146 0.9 2.6 0.01 0.54 0.40 95 1006.6
20260508193005 55 118 0.9 2.6 0.01 0.54 0.40 95 1006.6
20260508192506 55 153 1.7 2.6 0.01 0.54 0.40 95 1006.6
20260508192005 56 162 1.7 2.6 0.01 0.54 0.40 95 1006.6
20260508191505 56 237 0.0 0.0 0.01 0.54 0.40 96 1006.5
20260508190005 56 315 0.0 0.0 0.00 0.53 0.39 95 1006.3
20260508185505 56 212 0.0 0.0 0.00 0.53 0.39 95 1006.2
20260508184505 57 213 0.0 0.0 0.00 0.53 0.39 95 1006.3
20260508184005 57 285 0.0 0.0 0.00 0.53 0.39 95 1006.3
20260508183505 57 291 0.0 0.0 0.00 0.53 0.39 95 1006.5
20260508183005 57 294 0.0 0.0 0.00 0.53 0.39 95 1006.5
20260508182505 57 248 0.0 0.9 0.00 0.53 0.39 95 1006.4
20260508182006 58 287 0.0 0.9 0.00 0.53 0.39 95 1006.2
20260508181505 58 6 0.0 0.9 0.00 0.53 0.39 95 1006.3
20260508181005 58 6 0.0 0.9 0.00 0.53 0.39 95 1006.3
20260508175505 58 6 0.0 0.9 0.00 0.53 0.39 95 1006.3
20260508174505 58 6 0.0 0.9 0.00 0.53 0.39 95 1006.2
20260508174005 58 6 0.0 0.9 0.00 0.53 0.39 95 1006.3
20260508173505 58 6 0.0 1.7 0.00 0.53 0.39 95 1006.3
20260508173006 58 6 0.0 1.7 0.00 0.53 0.39 95 1006.2
20260508172505 58 8 0.9 1.7 0.00 0.53 0.39 95 1006.2
20260508171505 58 196 0.0 0.0 0.00 0.53 0.39 95 1006.1
20260508171005 58 196 0.0 0.0 0.00 0.53 0.39 95 1006.1
20260508170005 59 196 0.0 0.0 0.00 0.53 0.39 95 1005.7
20260508165505 59 196 0.0 0.0 0.00 0.53 0.39 95 1005.8
20260508165005 59 196 0.0 0.0 0.00 0.53 0.39 95 1005.8
20260508164505 59 214 0.0 0.0 0.01 0.53 0.39 95 1005.7
20260508164005 59 273 0.0 0.0 0.01 0.53 0.39 95 1005.7
20260508163505 59 273 0.0 0.0 0.02 0.53 0.39 95 1005.9
20260508161505 59 201 0.0 0.0 0.10 0.54 0.39 94 1005.7
20260508161005 59 245 0.0 0.0 0.11 0.57 0.39 94 1005.9
20260508160005 59 246 0.0 2.6 0.13 0.58 0.39 94 1006.1
20260508155505 59 264 1.7 2.6 0.14 0.58 0.39 94 1006.2
20260508155005 59 264 0.9 5.2 0.21 0.58 0.39 94 1006.4
20260508154505 59 268 1.7 5.2 0.27 0.57 0.39 94 1006.6
20260508154005 59 254 3.5 5.2 0.27 0.57 0.39 94 1006.6
20260508153505 60 305 1.7 5.2 0.25 0.56 0.37 94 1006.7
20260508153005 60 286 1.7 6.1 0.19 0.50 0.31 93 1006.7
20260508152005 60 257 2.6 12.2 0.18 0.48 0.29 93 1006.6
20260508151505 60 276 2.6 12.2 0.19 0.48 0.29 93 1006.6
20260508151005 61 256 5.2 11.3 0.18 0.47 0.28 93 1006.6
20260508145505 63 282 5.2 18.2 0.17 0.44 0.25 94 1006.4
20260508145005 64 299 6.1 18.2 0.10 0.37 0.18 95 1006.2
20260508144505 64 349 7.0 18.2 0.04 0.31 0.12 95 1006.1
20260508144004 64 353 5.2 17.4 0.05 0.31 0.12 95 1006.1
20260508143505 64 10 7.0 17.4 0.05 0.31 0.12 95 1006.1
20260508143005 64 353 5.2 13.9 0.06 0.31 0.12 95 1006.1
20260508142505 64 351 6.1 13.9 0.07 0.30 0.11 95 1006.2
20260508142005 64 354 5.2 13.9 0.07 0.30 0.11 95 1006.5
20260508141505 64 2 7.0 13.0 0.07 0.29 0.10 95 1006.6
20260508141005 64 350 6.1 14.8 0.07 0.29 0.10 95 1006.7
20260508140006 64 357 6.1 14.8 0.06 0.28 0.09 95 1006.7
20260508135005 64 7 5.2 20.9 0.06 0.27 0.08 94 1007.1
20260508134505 64 4 6.1 20.9 0.06 0.27 0.08 94 1007.1
20260508134005 64 357 4.3 20.9 0.06 0.26 0.07 94 1007.2
20260508133505 64 356 4.3 14.8 0.06 0.26 0.07 94 1007.4
20260508133005 64 354 3.5 14.8 0.06 0.24 0.06 94 1007.6
20260508132505 64 356 6.1 14.8 0.04 0.23 0.04 93 1007.5
20260508131005 64 3 6.1 17.4 0.03 0.22 0.03 93 1007.6
20260508130005 64 353 4.3 13.9 0.03 0.22 0.03 93 1007.7
20260508125507 64 6 6.1 11.3 0.13 0.22 0.03 93 1007.7
20260508125005 64 8 4.3 11.3 0.12 0.21 0.02 93 1007.8
20260508124505 64 356 5.2 13.0 0.12 0.21 0.02 93 1008.0
20260508124005 64 16 2.6 13.0 0.10 0.20 0.01 93 1008.1
20260508123505 64 1 6.1 12.2 0.10 0.20 0.01 92 1008.1
20260508123005 64 5 4.3 10.4 0.09 0.19 0.00 92 1008.3
20260508122504 64 0 3.5 10.4 0.09 0.19 0.00 92 1008.4
20260508122005 64 12 4.3 10.4 0.09 0.19 0.00 92 1008.6
20260508121505 64 348 1.7 10.4 0.09 0.19 0.00 91 1008.7
20260508121005 64 1 3.5 10.4 0.00 0.19 0.09 91 1008.7
20260508120005 64 346 3.5 10.4 0.00 0.12 0.00 91 1008.8
20260508115504 64 356 4.3 10.4 0.00 0.12 0.09 90 1009.0
20260508115004 64 8 4.3 10.4 0.00 0.12 0.09 90 1009.2
20260508114505 64 334 3.5 10.4 0.00 0.12 0.09 90 1009.2
20260508114004 64 12 5.2 10.4 0.00 0.12 0.09 90 1009.2
20260508113505 64 346 3.5 13.0 0.00 0.12 0.09 90 1009.4
20260508113005 64 345 4.3 13.0 0.00 0.12 0.09 90 1009.6
20260508112505 64 6 2.6 13.9 0.00 0.12 0.09 90 1009.7
20260508111505 64 8 4.3 11.3 0.00 0.12 0.09 90 1009.7
20260508111005 64 8 6.1 13.9 0.00 0.12 0.09 90 1009.7
20260508110005 64 22 5.2 18.2 0.00 0.12 0.09 91 1009.8
20260508105005 64 355 6.1 13.0 0.00 0.12 0.09 91 1010.3
20260508104505 64 352 5.2 13.0 0.00 0.12 0.09 92 1010.3
20260508104005 64 1 5.2 12.2 0.00 0.12 0.09 92 1010.6
20260508103505 64 340 2.6 10.4 0.00 0.12 0.09 92 1010.6
20260508103006 64 3 4.3 10.4 0.00 0.12 0.09 92 1010.7
20260508102504 64 8 4.3 10.4 0.00 0.12 0.09 92 1010.7
20260508102005 64 352 3.5 10.4 0.00 0.12 0.09 92 1010.8
20260508101005 64 10 4.3 13.9 0.00 0.12 0.09 92 1010.8
20260508095505 64 6 6.1 14.8 0.01 0.12 0.09 92 1011.2
20260508095005 64 5 5.2 14.8 0.01 0.12 0.09 92 1011.2
20260508093505 64 351 4.3 13.0 0.02 0.12 0.09 91 1011.3
20260508092505 63 354 4.3 13.0 0.02 0.12 0.09 92 1011.4
20260508091505 63 355 4.3 12.2 0.02 0.12 0.09 92 1011.4
20260508091005 63 20 3.5 12.2 0.02 0.12 0.09 92 1011.5
20260508085504 63 343 5.2 10.4 0.01 0.11 0.09 92 1011.8
20260508085004 64 351 2.6 7.8 0.01 0.11 0.09 91 1011.8
20260508084505 64 341 3.5 13.0 0.01 0.11 0.09 91 1011.8
20260508084004 64 350 3.5 13.0 0.00 0.10 0.08 90 1011.8
20260508083505 64 358 5.2 13.9 0.00 0.10 0.08 90 1011.7
20260508083006 64 12 7.0 13.9 0.00 0.10 0.08 90 1011.7
20260508082006 64 10 4.3 10.4 0.00 0.10 0.08 90 1011.7
20260508081506 64 21 2.6 11.3 0.00 0.10 0.08 89 1011.8
20260508081006 64 20 4.3 13.0 0.00 0.10 0.08 89 1011.9
20260508080006 64 21 4.3 12.2 0.00 0.10 0.08 90 1011.9
20260508075506 64 25 6.1 12.2 0.00 0.10 0.08 90 1012.0
20260508075006 64 7 6.1 12.2 0.00 0.10 0.08 90 1012.0
20260508074506 64 16 2.6 12.2 0.00 0.10 0.08 90 1012.1
20260508074006 64 38 5.2 12.2 0.00 0.10 0.08 89 1012.2
20260508073506 64 8 4.3 12.2 0.00 0.10 0.08 89 1012.4
20260508073006 64 11 3.5 12.2 0.00 0.10 0.08 89 1012.4
20260508071505 64 14 3.5 13.0 0.00 0.10 0.08 89 1012.4
20260508071006 64 7 5.2 13.0 0.00 0.10 0.08 89 1012.6
20260508070006 64 356 4.3 11.3 0.00 0.10 0.08 89 1012.6
20260508065006 64 12 4.3 11.3 0.00 0.10 0.08 89 1012.6
20260508064006 64 2 5.2 11.3 0.00 0.10 0.08 89 1012.8
20260508063006 64 20 4.3 10.4 0.00 0.10 0.08 88 1013.0
20260508061506 64 7 5.2 11.3 0.00 0.10 0.08 88 1013.4
20260508061007 64 356 2.6 14.8 0.00 0.10 0.08 88 1013.5
20260508060006 64 0 4.3 14.8 0.00 0.10 0.08 88 1013.4
20260508055506 64 0 4.3 11.3 0.00 0.10 0.08 88 1013.4
20260508055006 64 20 5.2 11.3 0.00 0.10 0.08 89 1013.5
20260508054505 64 19 2.6 7.8 0.00 0.10 0.08 89 1013.6
20260508053006 64 22 3.5 8.7 0.00 0.10 0.08 89 1013.4
20260508052506 64 3 4.3 10.4 0.00 0.10 0.08 89 1013.6
20260508051506 64 9 2.6 10.4 0.00 0.10 0.08 89 1013.9
20260508051006 64 10 3.5 10.4 0.00 0.10 0.08 89 1013.9
20260508050005 64 12 2.6 10.4 0.00 0.10 0.08 90 1014.0
20260508045506 64 25 3.5 10.4 0.00 0.10 0.08 90 1014.0
20260508045005 64 20 3.5 8.7 0.00 0.10 0.08 90 1014.0
20260508044506 64 18 2.6 5.2 0.00 0.10 0.08 89 1014.1
20260508044006 64 28 2.6 8.7 0.00 0.10 0.08 89 1014.1
20260508043505 64 18 3.5 8.7 0.00 0.10 0.08 88 1014.2
20260508043006 64 23 2.6 8.7 0.00 0.10 0.08 87 1014.4
20260508042505 64 16 1.7 10.4 0.00 0.10 0.08 88 1014.3
20260508042006 64 16 2.6 10.4 0.00 0.10 0.08 87 1014.2
20260508041506 64 25 2.6 10.4 0.00 0.10 0.08 87 1014.1
20260508041006 64 38 2.6 8.7 0.00 0.10 0.08 86 1014.3
20260508040006 65 26 1.7 7.0 0.00 0.10 0.08 84 1014.5
20260508035006 65 29 2.6 10.4 0.00 0.10 0.08 86 1014.4
20260508034506 64 23 3.5 10.4 0.00 0.10 0.08 86 1014.6